Regional Weather Roundup
Issued by NWS Bismarck, ND

Home | Current Version | Previous Version | Text Only | Print | Product List | Glossary On
Versions: 1 2 3 4 5 6 7 8 9 10 11 12 13 14 15 16 17 18 19 20 21 22 23 24 25 26 27 28 29 30 31 32 33 34 35 36 37 38 39 40 41 42 43 44 45 46 47 48 49 50
000
ASUS43 KBIS 021220
RWRBIS

NWR BROADCAST TEXT
NATIONAL WEATHER SERVICE BISMARCK ND
700 AM CDT TUE SEP 02 2014

NOTE: "FAIR" INDICATES FEW OR NO CLOUDS BELOW 12,000 FEET WITH NO
SIGNIFICANT WEATHER AND/OR OBSTRUCTIONS TO VISIBILITY.


CITY           SKY/WX    TMP DP  RH WIND       PRES   REMARKS
WILLISTON      PTCLDY    52  49  89 SW8       29.76F
MINOT          CLOUDY    54  51  90 NE5       29.76F
MINOT AFB      CLOUDY    53  53  99 S8        29.75F
BISMARCK       PTCLDY    50  47  89 CALM      29.83F
DICKINSON      CLEAR     54  44  69 SW16      29.81F
GARRISON         N/A     55  52  89 W3        29.79F
HETTINGER ARPT CLEAR     48  43  82 W3        29.88F
JAMESTOWN      PTCLDY    52  49  89 SW6       29.82S
BEACH            N/A     52  45  76 SW14      29.84S
CARRINGTON     PTSUNNY   54  54 100 SW7       29.82S
CROSBY         FAIR      50  50 100 S9        29.72F
HARVEY         PTSUNNY   52  50  93 SW6       29.80F
HAZEN          PTSUNNY   54  48  82 CALM      29.82R
LINTON         FAIR      46  46 100 S5        29.85F
MANDAN         FAIR      50  46  87 SW8       29.83S
OAKES            N/A     46  46 100 S7        29.85S
RUGBY          FAIR      50  50 100 NE5       29.78F
STANLEY        FAIR      54  50  87 SW6       29.76S
TIOGA          FAIR      52  52 100 SW9       29.78S
WATFORD CITY   FAIR      50  46  87 SW5       29.76F
$$

CITY           SKY/WX    TMP DP  RH WIND       PRES   REMARKS
GRAND FORKS    PTCLDY    52  48  86 W6        29.77R
GRAND FORKS AF PTCLDY    51  51  99 W6        29.77F
DEVILS LAKE    PTCLDY    57  48  72 SW7       29.77S
FARGO          CLEAR     52  49  89 SW7       29.81R
CANDO          CLOUDY    52  50  93 W5        29.79F
CAVALIER       FAIR      50  48  93 SW3       29.75S
GRAFTON        FAIR      50  50 100 SW8       29.76S
GWINNER        SUNNY     52  52 100 SW7       29.86S
LANGDON        FAIR      45  45 100 SW7       29.77S
ROLLA          PTSUNNY   50  50 100 SW7       29.78F
WALHALLA         N/A     52  50  93 CALM      29.75S
$$

CITY           SKY/WX    TMP DP  RH WIND       PRES   REMARKS
ABERDEEN       CLEAR     46  46 100 SW5       29.88S
MOBRIDGE       CLEAR     50  49  96 S7        29.86F
BUFFALO          N/A     52  44  74 W13       29.84S
RAPID CITY     CLEAR     45  40  82 SW3       29.97S
GLASGOW        PTCLDY    51  44  77 W7        29.79S
SIDNEY         PTCLDY    48  46  93 S3        29.80F
WOLF POINT     MOCLDY    53  46  77 SW6       29.79S
GLENDIVE       PTCLDY    50  45  81 CALM      29.85R
MILES CITY     PTCLDY    48  32  53 S6        29.86F
BAKER          CLEAR     53  43  68 W10       29.88S
$$

CITY           SKY/WX    TMP DP  RH WIND       PRES   REMARKS
BILLINGS       PTCLDY    54  42  64 NW3       29.92R
GREAT FALLS    CLOUDY    49  39  68 S8        29.89F
REGINA         MOCLDY    48  46  93 CALM      29.69F
ESTEVAN        MOCLDY    50  48  93 S3        29.72F
$$



USA.gov is the U.S. government's official web portal to all federal, state and local government web resources and services.